Location: ???????????
(44.4062°N, 135.3991°E)
Time: 01:16:38
(UTC+00:00)

Cosmos 2237 - Pass Details

Date: 19 May 2025
Orbit: 848 x 854 km, 70.8° (Epoch: 16 June)

Event Time Altitude Azimuth Distance (km) Brightness Sun altitude
Rises 14:21:34 0° 331° (NNW) 3,420 8.5 -25.2°
Reaches altitude 10° 14:24:03 10° 329° (NNW) 2,480 7.5 -25.3°
Maximum altitude 14:29:40 65° 249° (WSW) 930 4.2 -25.4°
Enters shadow 14:30:09 62° 221° (SW) 951 4.2 -25.4°
